When you browse on this site, cookies collect data to enhance your experience and personalize the content and advertising you see.
Visit our Privacy Policy to learn more. By continuing to use the site, you agree to this use of cookies and data.
  • In Norway
  • List of Countries
  • For 7 days
  • Water Temperature
  • Satellite Maps
  • Weather Map
  • Weather Widgets
  • user-avatar
    Login

    Hourly Weather Perth

    Today, 21 January, Monday

    Time Temperature Precipitation Wind Pressure Humidity
    00:00 +28°C° 0 mm 2 mps 756 mmHg 46%
    01:00 +27°C° 0 mm 1 mps 755 mmHg 47%
    02:00 +23°C° 0 mm 0 mps 755 mmHg 56%
    03:00 +25°C° 0 mm 1 mps 755 mmHg 56%
    04:00 +25°C° 0 mm 1 mps 755 mmHg 57%
    05:00 +25°C° 0 mm 1 mps 755 mmHg 57%
    06:00 +26°C° 0 mm 1 mps 755 mmHg 53%
    07:00 +28°C° 0 mm 2 mps 756 mmHg 48%
    08:00 +30°C° 0 mm 2 mps 756 mmHg 44%
    09:00 +31°C° 0 mm 3 mps 755 mmHg 41%
    10:00 +34°C° 0 mm 3 mps 755 mmHg 38%
    11:00 +36°C° 0 mm 4 mps 755 mmHg 35%
    12:00 +36°C° 0 mm 5 mps 755 mmHg 35%
    13:00 +36°C° 0 mm 5 mps 754 mmHg 35%
    14:00 +36°C° 0 mm 6 mps 754 mmHg 35%
    15:00 +35°C° 0 mm 6 mps 754 mmHg 36%
    16:00 +33°C° 0 mm 6 mps 753 mmHg 38%
    17:00 +32°C° 0 mm 6 mps 753 mmHg 39%
    18:00 +29°C° 0 mm 6 mps 753 mmHg 45%
    19:00 +27°C° 0 mm 6 mps 754 mmHg 51%
    20:00 +26°C° 0 mm 6 mps 754 mmHg 57%
    21:00 +26°C° 0 mm 6 mps 755 mmHg 56%
    22:00 +26°C° 0 mm 5 mps 755 mmHg 54%
    23:00 +26°C° 0 mm 5 mps 755 mmHg 52%

    Tomorrow, 22 January, Tuesday

    Time Temperature Precipitation Wind Pressure Humidity
    00:00 +25°C° 0 mm 5 mps 755 mmHg 53%
    01:00 +25°C° 0 mm 4 mps 755 mmHg 54%
    02:00 +23°C° 0 mm 4 mps 754 mmHg 55%
    03:00 +23°C° 0 mm 4 mps 754 mmHg 58%
    04:00 +22°C° 0 mm 4 mps 754 mmHg 60%
    05:00 +22°C° 0 mm 4 mps 754 mmHg 62%
    06:00 +22°C° 0 mm 4 mps 754 mmHg 63%
    07:00 +22°C° 0 mm 4 mps 754 mmHg 64%
    08:00 +22°C° 0 mm 4 mps 755 mmHg 64%
    09:00 +25°C° 0 mm 4 mps 754 mmHg 58%
    10:00 +27°C° 0 mm 3 mps 754 mmHg 51%
    11:00 +29°C° 0 mm 3 mps 754 mmHg 44%
    12:00 +29°C° 0 mm 4 mps 753 mmHg 43%
    13:00 +30°C° 0 mm 4 mps 752 mmHg 41%
    14:00 +32°C° 0 mm 4 mps 752 mmHg 40%
    15:00 +32°C° 0 mm 4 mps 751 mmHg 41%
    16:00 +30°C° 0 mm 5 mps 751 mmHg 43%
    17:00 +30°C° 0 mm 5 mps 750 mmHg 45%
    18:00 +28°C° 0 mm 5 mps 750 mmHg 53%
    19:00 +26°C° 0 mm 5 mps 751 mmHg 60%
    20:00 +23°C° 0 mm 5 mps 751 mmHg 68%
    21:00 +22°C° 0 mm 5 mps 752 mmHg 73%
    22:00 +21°C° 0 mm 6 mps 752 mmHg 78%
    23:00 +20°C° 0 mm 6 mps 752 mmHg 82%

    Day after tomorrow, 23 January, Wednesday

    Time Temperature Precipitation Wind Pressure Humidity
    00:00 +20°C° 0 mm 6 mps 752 mmHg 81%
    01:00 +19°C° 0 mm 6 mps 751 mmHg 80%
    02:00 +19°C° 0 mm 6 mps 751 mmHg 78%
    03:00 +19°C° 0 mm 6 mps 751 mmHg 76%
    04:00 +17°C° 0 mm 6 mps 751 mmHg 73%
    05:00 +17°C° 0 mm 6 mps 751 mmHg 70%
    06:00 +17°C° 0.2 mm 6 mps 751 mmHg 69%
    07:00 +18°C° 0.2 mm 7 mps 751 mmHg 67%
    08:00 +18°C° 0.2 mm 7 mps 751 mmHg 65%
    09:00 +18°C° 0.3 mm 8 mps 751 mmHg 62%
    10:00 +19°C° 0.3 mm 9 mps 751 mmHg 59%
    11:00 +21°C° 0.3 mm 11 mps 751 mmHg 55%
    12:00 +21°C° 0.5 mm 11 mps 751 mmHg 62%
    13:00 +19°C° 0.5 mm 11 mps 751 mmHg 69%
    14:00 +19°C° 0.5 mm 11 mps 751 mmHg 76%
    15:00 +19°C° 0.4 mm 10 mps 752 mmHg 72%
    16:00 +21°C° 0.4 mm 10 mps 752 mmHg 69%
    17:00 +21°C° 0.4 mm 9 mps 753 mmHg 66%
    18:00 +21°C° 0.2 mm 8 mps 753 mmHg 68%
    19:00 +20°C° 0.2 mm 8 mps 754 mmHg 71%
    20:00 +18°C° 0.2 mm 8 mps 754 mmHg 73%
    21:00 +18°C° 0.1 mm 7 mps 755 mmHg 73%
    22:00 +18°C° 0.1 mm 7 mps 755 mmHg 73%
    23:00 +19°C° 0.1 mm 6 mps 756 mmHg 73%

    24 January, Thursday

    Time Temperature Precipitation Wind Pressure Humidity
    00:00 +19°C° 0.1 mm 6 mps 756 mmHg 74%
    01:00 +19°C° 0.1 mm 6 mps 756 mmHg 75%
    02:00 +19°C° 0.1 mm 5 mps 756 mmHg 76%
    03:00 +19°C° 0.1 mm 5 mps 756 mmHg 77%
    04:00 +17°C° 0.1 mm 5 mps 756 mmHg 78%
    05:00 +18°C° 0.1 mm 4 mps 757 mmHg 79%
    06:00 +19°C° 0 mm 4 mps 757 mmHg 75%
    07:00 +20°C° 0 mm 5 mps 758 mmHg 71%
    08:00 +20°C° 0 mm 5 mps 758 mmHg 67%
    09:00 +21°C° 0 mm 5 mps 758 mmHg 63%
    10:00 +22°C° 0 mm 5 mps 759 mmHg 60%
    11:00 +23°C° 0 mm 5 mps 759 mmHg 56%
    12:00 +23°C° 0 mm 6 mps 758 mmHg 54%
    13:00 +24°C° 0 mm 6 mps 758 mmHg 51%
    14:00 +24°C° 0 mm 6 mps 758 mmHg 49%
    15:00 +24°C° 0 mm 6 mps 758 mmHg 49%
    16:00 +24°C° 0 mm 6 mps 758 mmHg 49%
    17:00 +24°C° 0 mm 6 mps 758 mmHg 49%
    18:00 +22°C° 0 mm 5 mps 758 mmHg 53%
    19:00 +21°C° 0 mm 5 mps 759 mmHg 56%
    20:00 +20°C° 0 mm 5 mps 759 mmHg 60%
    21:00 +19°C° 0 mm 4 mps 760 mmHg 59%
    22:00 +19°C° 0 mm 4 mps 760 mmHg 59%
    23:00 +19°C° 0 mm 4 mps 760 mmHg 58%

    25 January, Friday

    Time Temperature Precipitation Wind Pressure Humidity
    00:00 +18°C° 0 mm 4 mps 760 mmHg 58%
    01:00 +18°C° 0 mm 4 mps 760 mmHg 58%
    02:00 +17°C° 0 mm 4 mps 759 mmHg 59%
    03:00 +17°C° 0 mm 4 mps 759 mmHg 60%
    04:00 +15°C° 0 mm 4 mps 759 mmHg 62%
    05:00 +15°C° 0 mm 4 mps 759 mmHg 63%
    06:00 +17°C° 0 mm 4 mps 760 mmHg 59%
    07:00 +18°C° 0 mm 4 mps 760 mmHg 55%
    08:00 +19°C° 0 mm 4 mps 760 mmHg 52%
    09:00 +22°C° 0 mm 3 mps 760 mmHg 45%
    10:00 +26°C° 0 mm 2 mps 760 mmHg 38%
    11:00 +29°C° 0 mm 2 mps 760 mmHg 31%
    12:00 +29°C° 0 mm 3 mps 759 mmHg 31%
    13:00 +29°C° 0 mm 4 mps 758 mmHg 31%
    14:00 +30°C° 0 mm 5 mps 758 mmHg 31%
    15:00 +29°C° 0 mm 6 mps 758 mmHg 34%
    16:00 +27°C° 0 mm 6 mps 758 mmHg 38%
    17:00 +26°C° 0 mm 7 mps 758 mmHg 42%
    18:00 +23°C° 0 mm 6 mps 758 mmHg 50%
    19:00 +22°C° 0 mm 6 mps 758 mmHg 58%
    20:00 +20°C° 0 mm 6 mps 759 mmHg 66%
    21:00 +20°C° 0 mm 6 mps 759 mmHg 65%
    22:00 +19°C° 0 mm 6 mps 759 mmHg 65%
    23:00 +19°C° 0 mm 5 mps 760 mmHg 64%

    26 January, Saturday

    Time Temperature Precipitation Wind Pressure Humidity
    00:00 +17°C° 0 mm 5 mps 759 mmHg 64%
    01:00 +17°C° 0 mm 5 mps 759 mmHg 64%
    02:00 +17°C° 0 mm 5 mps 759 mmHg 64%
    03:00 +16°C° 0 mm 5 mps 759 mmHg 67%
    04:00 +16°C° 0 mm 5 mps 760 mmHg 69%
    05:00 +16°C° 0 mm 5 mps 760 mmHg 72%
    06:00 +17°C° 0 mm 5 mps 760 mmHg 67%
    07:00 +19°C° 0 mm 5 mps 761 mmHg 62%
    08:00 +20°C° 0 mm 5 mps 761 mmHg 57%
    09:00 +23°C° 0 mm 5 mps 761 mmHg 50%
    10:00 +26°C° 0 mm 4 mps 761 mmHg 44%
    11:00 +28°C° 0 mm 4 mps 761 mmHg 37%
    12:00 +29°C° 0 mm 4 mps 760 mmHg 35%
    13:00 +30°C° 0 mm 5 mps 759 mmHg 32%
    14:00 +32°C° 0 mm 5 mps 759 mmHg 29%
    15:00 +32°C° 0 mm 6 mps 759 mmHg 29%
    16:00 +32°C° 0 mm 6 mps 758 mmHg 30%
    17:00 +32°C° 0 mm 6 mps 758 mmHg 30%
    18:00 +29°C° 0 mm 6 mps 759 mmHg 31%
    19:00 +28°C° 0 mm 5 mps 759 mmHg 32%
    20:00 +27°C° 0 mm 5 mps 760 mmHg 34%
    21:00 +26°C° 0 mm 5 mps 760 mmHg 36%
    22:00 +24°C° 0 mm 6 mps 761 mmHg 38%
    23:00 +23°C° 0 mm 6 mps 761 mmHg 40%
    Show more